Regional Weather Roundup
Issued by NWS

Home | Current Version | Previous Version | Graphics & Text | Print | Product List | Glossary On
Versions: 1 2 3 4 5 6 7 8 9 10 11 12 13 14 15 16 17 18 19 20 21 22 23 24 25 26 27 28 29 30 31 32 33 34 35 36 37 38 39 40 41 42 43 44 45 46 47 48 49 50
000
ASUS43 KDMX 250506
RWRIA

WEATHER ROUNDUP FOR IOWA
NATIONAL WEATHER SERVICE DES MOINES IA
1200 AM CDT MON SEP 25 2017

NOTE: "FAIR" INDICATES FEW OR NO CLOUDS BELOW 12,000 FEET WITH NO
SIGNIFICANT WEATHER AND/OR OBSTRUCTIONS TO VISIBILITY.

* - THESE STATIONS ARE NOT NWS STATIONS...THUS NOT UNDER NWS
QUALITY CONTROL.  THEY ALSO DO NOT REPORT WEATHER SUCH
AS PRECIPITATION OR FOG.

IAZ001>003-012>014-020>022-031>034-043>046-250600-
   NORTHWEST IOWA

CITY           SKY/WX    TMP DP  RH WIND       PRES   REMARKS
CARROLL *      MOCLDY    68  68 100 CALM      29.93S
CHEROKEE *     CLOUDY    62  61  98 N6        29.95F
DENISON *      CLOUDY    64  64 100 N7        29.95F
LE MARS *      CLOUDY    59  57  94 W10       29.99R
ORANGE CITY *  CLOUDY    59  59 100 N9        29.97R
SHELDON *      CLOUDY    59  57  94 NW9       29.95S
SIOUX CITY     CLOUDY    59  58  96 N12       29.97R
SPENCER        CLOUDY    64  62  93 N7        29.96R
STORM LAKE *   CLOUDY    63  63 100 N9        29.95F
$$

IAZ055>058-069>071-079>083-090>094-250600-
   SOUTHWEST IOWA

CITY           SKY/WX    TMP DP  RH WIND       PRES   REMARKS
ATLANTIC *     PTCLDY    70  66  88 W6        29.92S
AUDUBON *      CLEAR     66  64  94 CALM      29.94S
CLARINDA *     CLEAR     66  64  94 CALM      29.93F
COUNCIL BLFS * CLOUDY    64  64 100 N12       29.94S
CRESTON *      CLEAR     72  64  78 S6        29.95S
HARLAN  *      CLOUDY    68  68 100 N6G13     29.96F
LAMONI         CLEAR     73  64  73 SE6       29.95S
RED OAK *      PTCLDY    72  66  83 CALM      29.91F
SHENANDOAH *   MOCLDY    72  64  78 SE3       29.91F
$$

IAZ047>049-059>061-072>074-084-250600-
   CENTRAL IOWA

CITY           SKY/WX    TMP DP  RH WIND       PRES   REMARKS
AMES           PTCLDY    69  65  86 SE5       29.92F
ANKENY *       PTCLDY    72  64  78 CALM      29.93F
BOONE *        CLOUDY    72  63  73 CALM      29.92S
CHARITON *     CLEAR     68  63  83 S6        29.94S
DES MOINES     PTCLDY    74  63  68 SE7       29.91F
GRINNELL*      CLEAR     70  62  76 CALM      29.96S
KNOXVILLE *    CLEAR     73  63  68 S5        29.93S
MARSHALLTOWN   CLEAR     66  63  90 E7        29.93F
NEWTON *       CLEAR     68  63  83 SE8       29.94F
PELLA *        CLEAR     71  63  73 SE3       29.94F
PERRY *        MOCLDY    72  65  79 S3        29.92S
$$

IAZ004>006-015-016-023>025-035-036-250600-
   NORTH CENTRAL IOWA

CITY           SKY/WX    TMP DP  RH WIND       PRES   REMARKS
ALGONA *       LGT RAIN  68  68 100 CALM      29.95R
CLARION *      CLOUDY    70  66  88 NE3       29.94S
ESTHERVILLE    CLOUDY    65  65 100 N10       29.95R
FORT DODGE *   CLOUDY    68  66  93 E5        29.93F
MASON CITY     MOCLDY    69  63  81 NE5       29.96F
FOREST CITY *  LGT RAIN  68  66  94 CALM      29.95S
WEBSTER CITY * PTCLDY    68  64  88 CALM      29.92S
IOWA FALLS *     N/A     71  63  76 CALM      29.95F
$$

IAZ007>011-017>019-026>030-037>042-050>054-066-250600-
   NORTHEAST IOWA

CITY           SKY/WX    TMP DP  RH WIND       PRES   REMARKS
CEDAR RAPIDS     N/A     70  63  78 SE5       29.95S
CHARLES CITY * CLEAR     72  63  73 VRB5      29.95S
CLINTON *      CLEAR    N/A N/A N/A E3        29.98S
DECORAH *      CLEAR     72  63  73 S5        29.96R
DUBUQUE        CLEAR     68  62  81 S6        29.98F
MONTICELLO *   CLEAR     64  61  88 CALM      29.96S
OELWEIN *      CLEAR     68  64  88 SE7       29.97S
WATERLOO       CLEAR     71  62  73 SE5       29.93F
$$

IAZ064-065-067-068-078-250600-
   EAST CENTRAL IOWA

CITY           SKY/WX    TMP DP  RH WIND       PRES   REMARKS
DAVENPORT      CLEAR     70  63  78 SE6       29.99S
IOWA CITY      CLEAR     71  64  78 CALM      29.96F
MUSCATINE *    CLEAR     68  64  88 CALM      29.96S
QUAD CITIES    CLEAR     70  62  76 E3        29.96S
$$

IAZ062-063-075>077-085>089-095>099-250600-
   SOUTHEAST IOWA

CITY           SKY/WX    TMP DP  RH WIND       PRES   REMARKS
BURLINGTON     CLEAR     73  63  70 SE3       29.96S
FAIRFIELD *    CLEAR     72  61  68 SE6       29.95S
FORT MADISON * CLEAR     73  63  68 CALM      29.97S
KEOKUK *       CLEAR     72  63  73 E5        29.95F
OSKALOOSA *      N/A     70  63  78 SE6       29.94F
OTTUMWA        CLEAR     74  63  68 S7        29.93F
WASHINGTON *   CLEAR     70  64  83 SE7       29.96F
$$

ABBREVIATIONS USED IN REMARKS
   TC - TEMPERATURES IN CELSIUS
  WCI - WIND CHILL INDEX
   HX - HEAT INDEX
  VSB - VISIBILITY
$$




USA.gov is the U.S. government's official web portal to all federal, state and local government web resources and services.